South Lake Tahoe, CA

12:38 AM PST on November 18, 2019 (GMT -0800)
Lake Tahoe

Weather History for KTVL - October, 2019

Change the Weather History Date:

Saturday, October 12, 2019

  Actual Average Record
Temperature  
Mean Temperature 44 °F 47 °F  
Max Temperature 64 °F 64 °F 79 °F (2015)
Min Temperature 23 °F 29 °F 14 °F (1969)
Degree Days  
Heating Degree Days 21 18  
Month to date heating degree days 253 202  
Since 1 July heating degree days 864 828  
Cooling Degree Days 0 0  
Month to date cooling degree days 0 0  
Year to date cooling degree days 20 31  
Moisture  
Dew Point 23 °F    
Average Humidity 53    
Maximum Humidity 77    
Minimum Humidity 19    
Precipitation  
Precipitation 0.00 in - 1.37 in (1962)
Month to date precipitation 0.00  
Year to date precipitation 18.02  
Sea Level Pressure  
Sea Level Pressure 30.02 in    
Wind  
Wind Speed 3 mph ()    
Max Wind Speed 9 mph    
Max Gust Speed 13 mph    
Visibility 9.2 miles    
Events      
T = Trace of Precipitation, MM = Missing Value Source: Averaged Metar Reports

Daily Weather History Graph

Daily Weather History Graph

Search for Another Location

Airport or City:

Astronomy

Oct. 12, 2019 Rise Set
Actual Time 7:06 AM PDT 6:26 PM PDT
Civil Twilight 6:39 AM PDT 6:52 PM PDT
Nautical Twilight 6:08 AM PDT 7:23 PM PDT
Astronomical Twilight 5:37 AM PDT 7:54 PM PDT
Moon 6:23 PM PDT (10/12) 5:49 AM PDT (10/12)
Length of Visible Light 12h 13m
Length of Day
11h 19m
Waxing Gibbous, 99% of the Moon is Illuminated
Oct 12
Waxing Gibbous
Oct 13
Full
Oct 21
Last Quarter
Oct 27
New
Nov 4
First Quarter

Hourly Weather History & Observations

Time (PDT) Temp. Windchill Dew Point Humidity Pressure Visibility Wind Dir Wind Speed Gust Speed Precip Events Conditions
12:53 AM 28.9 °F 25.2 °F 19.0 °F 67% 30.07 in 10.0 mi South 3.5 mph - N/A   Clear
1:53 AM 28.0 °F 24.2 °F 19.0 °F 69% 30.07 in 9.0 mi South 3.5 mph - N/A   Clear
2:53 AM 27.0 °F 23.0 °F 19.0 °F 72% 30.06 in 10.0 mi SSW 3.5 mph - N/A   Clear
3:53 AM 26.1 °F 21.9 °F 19.0 °F 75% 30.05 in 10.0 mi South 3.5 mph - N/A   Clear
4:53 AM 25.0 °F 20.7 °F 18.0 °F 75% 30.04 in 10.0 mi South 3.5 mph - N/A   Clear
5:53 AM 24.1 °F 17.0 °F 18.0 °F 77% 30.07 in 10.0 mi South 5.8 mph - N/A   Clear
6:53 AM 24.1 °F 18.2 °F 18.0 °F 77% 30.09 in 10.0 mi South 4.6 mph - N/A   Clear
7:53 AM 24.1 °F 19.7 °F 18.0 °F 77% 30.11 in 10.0 mi South 3.5 mph - N/A   Clear
8:53 AM 33.1 °F 28.7 °F 23.0 °F 66% 30.10 in 10.0 mi South 4.6 mph - N/A   Clear
9:53 AM 45.0 °F - 25.0 °F 46% 30.07 in 9.0 mi Calm Calm - N/A   Clear
10:53 AM 55.0 °F - 28.0 °F 35% 30.03 in 10.0 mi ENE 4.6 mph - N/A   Clear
11:53 AM 59.0 °F - 30.0 °F 33% 30.02 in 10.0 mi NNE 5.8 mph - N/A   Clear
12:53 PM 61.0 °F - 28.0 °F 29% 30.00 in 10.0 mi NNE 5.8 mph - N/A   Clear
1:53 PM 62.1 °F - 23.0 °F 22% 29.98 in 8.0 mi NNE 5.8 mph - N/A   Clear
2:53 PM 64.0 °F - 21.9 °F 20% 29.95 in 8.0 mi NNE 5.8 mph - N/A   Clear
3:53 PM 64.9 °F - 23.0 °F 20% 29.94 in 9.0 mi Variable 5.8 mph - N/A   Clear
4:53 PM 63.0 °F - 24.1 °F 23% 29.95 in 8.0 mi NNE 5.8 mph - N/A   Clear
5:53 PM 55.0 °F - 27.0 °F 34% 29.97 in 8.0 mi Calm Calm - N/A   Clear
6:53 PM 48.0 °F - 26.1 °F 42% 30.00 in 10.0 mi Calm Calm - N/A   Partly Cloudy
7:53 PM 43.0 °F 41.3 °F 27.0 °F 53% 30.02 in 10.0 mi SSW 3.5 mph - N/A   Clear
8:53 PM 39.9 °F - 26.1 °F 58% 30.00 in 10.0 mi Calm Calm - N/A   Clear
9:53 PM 37.0 °F - 25.0 °F 62% 29.98 in 8.0 mi Calm Calm - N/A   Clear
10:53 PM 35.1 °F 32.2 °F 24.1 °F 64% 29.97 in 7.0 mi South 3.5 mph - N/A   Overcast
11:53 PM 33.1 °F - 23.0 °F 66% 29.96 in 7.0 mi Calm Calm - N/A   Clear